Location: Skanderborg
(56.0313°N, 9.9317°E)
Time: 22:39:14
(UTC+00:00)

CENTAUR R/B - Pass Details

Date: 15 August 2020
Orbit: 756 x 1432 km, 63.4° (Epoch: 19 September)

Event Time Altitude Azimuth Distance (km) Brightness Sun altitude
Rises 22:44:26 0° 260° (W) 3,641 5.5 -19.8°
Reaches altitude 10° 22:46:53 10° 265° (W) 2,785 4.9 -19.9°
Maximum altitude 22:53:25 55° 343° (NNW) 1,345 3.5 -20.0°
Drops below altitude 10° 23:01:09 10° 61° (ENE) 3,280 5.5 -20.1°
Sets 23:04:16 0° 65° (ENE) 4,335 6.1 -20.2°
